Location: Unspecified
(34.4950°S, 58.5160°W)
Time: 23:33:37
(UTC+00:00)

USA 59 Rocket - Pass Details

Date: 19 April 2026
Orbit: 367 x 1664 km, 63.3° (Epoch: 16 May)

Event Time Altitude Azimuth Distance (km) Brightness Sun altitude
Exits shadow 06:31:25 17° 190° (S) 3,382 3.8 -47.2°
Drops below altitude 10° 06:35:17 10° 168° (SSE) 3,949 4.4 -46.4°
Sets 06:39:53 0° 151° (SSE) 4,905 5.1 -45.6°
